Location: Newark
(1.5753°S, 9.2592°E)
Time: 05:40:19
(UTC+00:00)

Hubble Space Telescope - Visible Passes

Search period start: 14 November 2019 00:00
Search period end: 24 November 2019 00:00
Orbit: 536 x 540 km, 28.5° (Epoch: 13 November)

Date Brightness Start Highest point End Pass type
(mag) Time Alt. Az. Time Alt. Az. Time Alt. Az.
14 Nov 2.2 03:40:09 24° N 03:41:19 28° NNE 03:44:54 10° E visible
15 Nov 1.5 03:30:23 39° NNE 03:30:44 40° NNE 03:34:38 10° E visible
16 Nov 1.2 03:20:35 54° ENE 03:20:35 54° ENE 03:24:14 10° ESE visible
17 Nov 1.7 03:10:45 46° ESE 03:10:45 46° ESE 03:13:43 10° ESE visible
18 Nov 2.5 03:00:52 30° SE 03:00:52 30° SE 03:03:06 10° SE visible
18 Nov 3.1 04:38:37 10° SW 04:40:17 12° SSW 04:41:58 10° S visible
19 Nov 3.2 02:50:57 20° SE 02:50:57 20° SE 02:52:23 10° SE visible
20 Nov 3.7 02:40:59 13° SSE 02:40:59 13° SSE 02:41:35 10° SE visible
